Verona, Italy

2:23 PM CEST on July 23, 2017 (GMT +0200)
Villafranca Mil

Weather History for LIPX - September, 2013

Change the Weather History Date:

Saturday, September 7, 2013

  Actual Average Record
Temperature  
Mean Temperature 78 °F -  
Max Temperature 89 °F 73 °F 91 °F (2006)
Min Temperature 66 °F 55 °F 50 °F (1996)
Cooling Degree Days 12    
Growing Degree Days 28 (Base 50)    
Moisture  
Dew Point 63 °F    
Average Humidity 61    
Maximum Humidity 88    
Minimum Humidity 32    
Precipitation  
Precipitation 0.00 in 0.09 in - ()
Sea Level Pressure  
Sea Level Pressure 30.03 in    
Wind  
Wind Speed 4 mph ()    
Max Wind Speed 12 mph    
Max Gust Speed -    
Visibility 6.6 miles    
Events      
Averages and records for this station are not official NWS values.
T = Trace of Precipitation, MM = Missing Value Source: Averaged Metar Reports

Daily Weather History Graph

Daily Weather History Graph

Search for Another Location

Airport or City:

Trip Planner

Search our weather history database for the weather conditions in past years. The results will help you decide how hot, cold, wet, or windy it might be!

Date:

Astronomy

Sep. 07, 2013 Rise Set
Actual Time 6:45 AM CEST 7:42 PM CEST
Civil Twilight 6:15 AM CEST 8:12 PM CEST
Nautical Twilight 5:39 AM CEST 8:48 PM CEST
Astronomical Twilight 5:01 AM CEST 9:26 PM CEST
Moon 8:50 AM CEST (9/7) 8:21 PM CEST (9/7)
Length of Visible Light 13h 57m
Length of Day
12h 57m
Waxing Crescent, 4% of the Moon is Illuminated
Sep 7
Waxing Crescent
Sep 12
First Quarter
Sep 19
Full
Sep 27
Last Quarter
Oct 5
New

Hourly Weather History & Observations

Time (CEST) Temp. Heat Index Dew Point Humidity Pressure Visibility Wind Dir Wind Speed Gust Speed Precip Events Conditions
12:15 AM 73.4 °F - 64.4 °F 73% 29.98 in - NE 6.9 mph - N/A   Clear
12:45 AM 73.4 °F - 64.4 °F 73% 29.98 in - NE 5.8 mph - N/A   Clear
1:15 AM 73.4 °F - 64.4 °F 73% 29.98 in - NE 5.8 mph - N/A   Clear
1:45 AM 73.4 °F - 64.4 °F 73% 29.98 in - NE 5.8 mph - N/A   Clear
2:00 AM 73 °F - 65 °F 68% 29.99 in 6 mi NE 5.8 mph - -  
2:15 AM 73.4 °F - 64.4 °F 73% 29.98 in - NE 5.8 mph - N/A   Clear
2:45 AM 71.6 °F - 64.4 °F 78% 29.98 in - NW 2.3 mph - N/A   Clear
3:15 AM 69.8 °F - 64.4 °F 83% 30.01 in - NW 2.3 mph - N/A   Clear
3:45 AM 69.8 °F - 64.4 °F 83% 30.01 in - NW 2.3 mph - N/A   Clear
4:15 AM 69.8 °F - 64.4 °F 83% 30.01 in - NW 2.3 mph - N/A   Clear
4:45 AM 69.8 °F - 64.4 °F 83% 30.01 in - North 4.6 mph - N/A   Clear
5:00 AM 69 °F - 64 °F 81% 30.01 in 6 mi North 4.6 mph - -  
5:15 AM 68.0 °F - 64.4 °F 88% 30.01 in - North 3.5 mph - N/A   Clear
5:45 AM 68.0 °F - 64.4 °F 88% 30.01 in - North 3.5 mph - N/A   Clear
6:15 AM 68.0 °F - 62.6 °F 83% 30.01 in - NNW 2.3 mph - N/A   Clear
6:45 AM 66.2 °F - 62.6 °F 88% 30.04 in - NNW 1.2 mph - N/A   Clear
7:15 AM 66.2 °F - 62.6 °F 88% 30.04 in - Calm Calm - N/A   Clear
7:45 AM 68.0 °F - 62.6 °F 83% 30.04 in - NNW 2.3 mph - N/A   Clear
8:00 AM 67 °F - 63 °F 84% 30.04 in 6 mi NNW 2.3 mph - -  
8:15 AM 69.8 °F - 64.4 °F 83% 30.04 in - North 3.5 mph - N/A   Clear
8:45 AM 71.6 °F - 64.4 °F 78% 30.04 in - North 2.3 mph - N/A   Clear
9:15 AM 75.2 °F - 64.4 °F 69% 30.06 in - Calm Calm - N/A   Clear
9:45 AM 78.8 °F - 64.4 °F 61% 30.06 in - Calm Calm - N/A   Clear
10:15 AM 80.6 °F 82.3 °F 64.4 °F 58% 30.06 in - ENE 2.3 mph - N/A   Clear
10:45 AM 80.6 °F 81.8 °F 62.6 °F 54% 30.06 in - ESE 2.3 mph - N/A   Clear
11:00 AM 81 °F - 62 °F 43% 30.06 in 6 mi ESE 2.3 mph - -  
11:15 AM 82.4 °F 83.4 °F 62.6 °F 51% 30.06 in - SE 2.3 mph - N/A   Clear
11:45 AM 84.2 °F 85.0 °F 62.6 °F 48% 30.06 in - East 3.5 mph - N/A   Clear
12:15 PM 84.2 °F 85.0 °F 62.6 °F 48% 30.06 in - SE 3.5 mph - N/A   Clear
12:45 PM 84.2 °F 84.4 °F 60.8 °F 45% 30.06 in - SSE 4.6 mph - N/A   Clear
1:15 PM 86.0 °F 86.1 °F 60.8 °F 43% 30.06 in - South 4.6 mph - N/A   Clear
1:45 PM 86.0 °F 86.1 °F 60.8 °F 43% 30.06 in - SE 4.6 mph - N/A   Clear
2:00 PM 86 °F - 62 °F 34% 30.05 in 6 mi SE 4.6 mph - -  
2:15 PM 86.0 °F 86.1 °F 60.8 °F 43% 30.06 in - SE 4.6 mph - N/A   Clear
2:45 PM 87.8 °F 88.5 °F 62.6 °F 43% 30.04 in - SSW 1.2 mph - N/A   Clear
3:15 PM 87.8 °F 88.5 °F 62.6 °F 43% 30.04 in - SE 3.5 mph - N/A   Clear
3:45 PM 87.8 °F 88.5 °F 62.6 °F 43% 30.04 in - SSE 4.6 mph - N/A   Clear
4:15 PM 87.8 °F 87.6 °F 60.8 °F 40% 30.04 in - WSW 3.5 mph - N/A   Clear
4:45 PM 87.8 °F 87.6 °F 60.8 °F 40% 30.04 in - SSE 4.6 mph - N/A   Clear
5:00 PM 87 °F - 61 °F 32% 30.03 in 6 mi SSE 4.6 mph - -  
5:15 PM 87.8 °F 87.1 °F 59.0 °F 38% 30.04 in - South 3.5 mph - N/A   Clear
5:45 PM 87.8 °F 87.1 °F 59.0 °F 38% 30.04 in - SE 3.5 mph - N/A   Clear
6:15 PM 87.8 °F 87.1 °F 59.0 °F 38% 30.04 in - ESE 3.5 mph - N/A   Clear
6:45 PM 87.8 °F 87.6 °F 60.8 °F 40% 30.04 in - SSE 3.5 mph - N/A   Clear
7:15 PM 86.0 °F 86.1 °F 60.8 °F 43% 30.04 in - SE 2.3 mph - N/A   Clear
7:45 PM 84.2 °F 85.0 °F 62.6 °F 48% 30.04 in - SE 2.3 mph - N/A   Clear
8:00 PM 84 °F - 62 °F 37% 30.03 in 6 mi SE 2.3 mph - -  
8:15 PM 82.4 °F 83.9 °F 64.4 °F 54% 30.04 in - East 3.5 mph - N/A   Clear
8:45 PM 80.6 °F 81.8 °F 62.6 °F 54% 30.04 in - ENE 6.9 mph - N/A   Clear
9:45 PM 78.8 °F - 66.2 °F 65% 30.06 in - ENE 11.5 mph - N/A   Clear
10:15 PM 77.0 °F - 64.4 °F 65% 30.06 in - ENE 10.4 mph - N/A   Clear
10:45 PM 77.0 °F - 64.4 °F 65% 30.06 in - ENE 9.2 mph - N/A   Clear
11:00 PM 77 °F - 65 °F 59% 30.07 in 12 mi ENE 9.2 mph - -  
11:15 PM 75.2 °F - 64.4 °F 69% 30.06 in 6.2 mi ENE 9.2 mph - N/A   Partly Cloudy
11:45 PM 75.2 °F - 64.4 °F 69% 30.06 in 6.2 mi ENE 8.1 mph - N/A   Partly Cloudy